When you browse on this site, cookies collect data to enhance your experience and personalize the content and advertising you see.
Visit our Privacy Policy to learn more. By continuing to use the site, you agree to this use of cookies and data.
  • In Hungary
  • List of Countries
  • For 7 days
  • Water Temperature
  • Weather Map
  • News
  • Weather Widgets
  • user-avatar
    Login

    Hourly Weather Tholen

    Today, 22 August, Thursday

    Time Temperature Precipitation Wind Pressure Humidity
    00:00 +15°C° 0 mm 2 mps 769 mmHg 66%
    01:00 +15°C° 0 mm 2 mps 768 mmHg 67%
    02:00 +15°C° 0 mm 2 mps 768 mmHg 68%
    03:00 +14°C° 0 mm 2 mps 768 mmHg 69%
    04:00 +14°C° 0 mm 2 mps 768 mmHg 69%
    05:00 +15°C° 0 mm 2 mps 768 mmHg 69%
    06:00 +15°C° 0 mm 2 mps 768 mmHg 70%
    07:00 +17°C° 0 mm 2 mps 769 mmHg 66%
    08:00 +19°C° 0 mm 3 mps 769 mmHg 61%
    09:00 +21°C° 0 mm 3 mps 769 mmHg 57%
    10:00 +22°C° 0 mm 3 mps 769 mmHg 54%
    11:00 +24°C° 0 mm 3 mps 769 mmHg 50%
    12:00 +25°C° 0 mm 3 mps 768 mmHg 46%
    13:00 +25°C° 0 mm 3 mps 768 mmHg 46%
    14:00 +23°C° 0 mm 4 mps 768 mmHg 46%
    15:00 +23°C° 0 mm 4 mps 768 mmHg 46%
    16:00 +22°C° 0 mm 3 mps 768 mmHg 51%
    17:00 +21°C° 0 mm 2 mps 768 mmHg 55%
    18:00 +20°C° 0 mm 2 mps 768 mmHg 59%
    19:00 +19°C° 0 mm 1 mps 768 mmHg 60%
    20:00 +18°C° 0 mm 1 mps 768 mmHg 62%
    21:00 +16°C° 0 mm 1 mps 769 mmHg 63%
    22:00 +16°C° 0 mm 1 mps 769 mmHg 63%
    23:00 +15°C° 0 mm 1 mps 769 mmHg 63%

    Tomorrow, 23 August, Friday

    Time Temperature Precipitation Wind Pressure Humidity
    00:00 +15°C° 0 mm 1 mps 769 mmHg 63%
    01:00 +15°C° 0 mm 1 mps 768 mmHg 64%
    02:00 +14°C° 0 mm 1 mps 768 mmHg 65%
    03:00 +14°C° 0 mm 1 mps 768 mmHg 66%
    04:00 +14°C° 0 mm 1 mps 768 mmHg 66%
    05:00 +15°C° 0 mm 1 mps 768 mmHg 65%
    06:00 +15°C° 0 mm 1 mps 768 mmHg 65%
    07:00 +18°C° 0 mm 1 mps 768 mmHg 60%
    08:00 +20°C° 0 mm 1 mps 769 mmHg 54%
    09:00 +23°C° 0 mm 1 mps 769 mmHg 48%
    10:00 +24°C° 0 mm 1 mps 768 mmHg 47%
    11:00 +25°C° 0 mm 1 mps 768 mmHg 45%
    12:00 +26°C° 0 mm 1 mps 768 mmHg 43%
    13:00 +26°C° 0 mm 2 mps 767 mmHg 44%
    14:00 +26°C° 0 mm 2 mps 767 mmHg 44%
    15:00 +26°C° 0 mm 3 mps 767 mmHg 45%
    16:00 +25°C° 0 mm 3 mps 767 mmHg 50%
    17:00 +24°C° 0 mm 3 mps 767 mmHg 56%
    18:00 +21°C° 0 mm 3 mps 766 mmHg 61%
    19:00 +21°C° 0 mm 3 mps 766 mmHg 63%
    20:00 +20°C° 0 mm 3 mps 767 mmHg 65%
    21:00 +19°C° 0 mm 3 mps 767 mmHg 66%
    22:00 +19°C° 0 mm 3 mps 767 mmHg 69%
    23:00 +18°C° 0 mm 3 mps 766 mmHg 71%

    Day after tomorrow, 24 August, Saturday

    Time Temperature Precipitation Wind Pressure Humidity
    00:00 +18°C° 0 mm 3 mps 766 mmHg 74%
    01:00 +17°C° 0 mm 3 mps 766 mmHg 76%
    02:00 +17°C° 0 mm 3 mps 766 mmHg 79%
    03:00 +16°C° 0 mm 3 mps 765 mmHg 81%
    04:00 +17°C° 0 mm 3 mps 765 mmHg 81%
    05:00 +17°C° 0 mm 3 mps 765 mmHg 80%
    06:00 +17°C° 0 mm 2 mps 765 mmHg 80%
    07:00 +19°C° 0 mm 2 mps 765 mmHg 71%
    08:00 +21°C° 0 mm 2 mps 765 mmHg 63%
    09:00 +25°C° 0 mm 2 mps 765 mmHg 55%
    10:00 +26°C° 0 mm 2 mps 765 mmHg 50%
    11:00 +28°C° 0 mm 2 mps 764 mmHg 46%
    12:00 +29°C° 0 mm 2 mps 764 mmHg 41%
    13:00 +29°C° 0 mm 3 mps 764 mmHg 40%
    14:00 +29°C° 0 mm 3 mps 763 mmHg 39%
    15:00 +30°C° 0 mm 3 mps 763 mmHg 38%
    16:00 +28°C° 0 mm 3 mps 763 mmHg 44%
    17:00 +27°C° 0 mm 3 mps 763 mmHg 49%
    18:00 +26°C° 0 mm 3 mps 763 mmHg 55%
    19:00 +25°C° 0 mm 3 mps 763 mmHg 57%
    20:00 +22°C° 0 mm 3 mps 763 mmHg 59%
    21:00 +21°C° 0 mm 3 mps 763 mmHg 61%
    22:00 +21°C° 0 mm 3 mps 763 mmHg 63%
    23:00 +20°C° 0 mm 3 mps 763 mmHg 65%

    25 August, Sunday

    Time Temperature Precipitation Wind Pressure Humidity
    00:00 +20°C° 0 mm 2 mps 762 mmHg 67%
    01:00 +19°C° 0 mm 2 mps 762 mmHg 68%
    02:00 +19°C° 0 mm 2 mps 762 mmHg 68%
    03:00 +19°C° 0 mm 2 mps 762 mmHg 69%
    04:00 +19°C° 0 mm 2 mps 762 mmHg 69%
    05:00 +19°C° 0 mm 2 mps 762 mmHg 68%
    06:00 +19°C° 0 mm 2 mps 762 mmHg 68%
    07:00 +21°C° 0 mm 2 mps 762 mmHg 62%
    08:00 +24°C° 0 mm 2 mps 763 mmHg 56%
    09:00 +26°C° 0 mm 2 mps 763 mmHg 51%
    10:00 +28°C° 0 mm 2 mps 763 mmHg 47%
    11:00 +29°C° 0 mm 2 mps 762 mmHg 44%
    12:00 +30°C° 0 mm 2 mps 762 mmHg 41%
    13:00 +31°C° 0 mm 2 mps 762 mmHg 39%
    14:00 +31°C° 0 mm 2 mps 762 mmHg 38%
    15:00 +31°C° 0 mm 2 mps 762 mmHg 36%
    16:00 +30°C° 0 mm 2 mps 762 mmHg 43%
    17:00 +28°C° 0 mm 3 mps 762 mmHg 49%
    18:00 +27°C° 0 mm 3 mps 762 mmHg 55%
    19:00 +26°C° 0 mm 3 mps 763 mmHg 58%
    20:00 +25°C° 0 mm 3 mps 763 mmHg 60%
    21:00 +24°C° 0 mm 3 mps 763 mmHg 63%
    22:00 +22°C° 0 mm 3 mps 763 mmHg 63%
    23:00 +22°C° 0 mm 3 mps 763 mmHg 64%

    26 August, Monday

    Time Temperature Precipitation Wind Pressure Humidity
    00:00 +21°C° 0 mm 2 mps 763 mmHg 64%
    01:00 +21°C° 0 mm 2 mps 763 mmHg 65%
    02:00 +20°C° 0 mm 2 mps 763 mmHg 66%
    03:00 +21°C° 0 mm 1 mps 763 mmHg 68%
    04:00 +21°C° 0 mm 1 mps 763 mmHg 68%
    05:00 +22°C° 0 mm 1 mps 764 mmHg 68%
    06:00 +22°C° 0 mm 1 mps 764 mmHg 68%
    07:00 +24°C° 0 mm 1 mps 764 mmHg 62%
    08:00 +26°C° 0 mm 1 mps 764 mmHg 55%
    09:00 +28°C° 0 mm 1 mps 765 mmHg 49%
    10:00 +29°C° 0 mm 1 mps 765 mmHg 45%
    11:00 +31°C° 0 mm 1 mps 765 mmHg 41%
    12:00 +32°C° 0 mm 1 mps 765 mmHg 37%
    13:00 +32°C° 0 mm 1 mps 764 mmHg 37%
    14:00 +32°C° 0 mm 1 mps 764 mmHg 36%
    15:00 +32°C° 0 mm 2 mps 764 mmHg 35%
    16:00 +30°C° 0 mm 2 mps 764 mmHg 41%
    17:00 +29°C° 0 mm 2 mps 764 mmHg 47%
    18:00 +27°C° 0 mm 3 mps 764 mmHg 53%
    19:00 +26°C° 0 mm 3 mps 764 mmHg 54%
    20:00 +25°C° 0 mm 2 mps 765 mmHg 55%
    21:00 +24°C° 0 mm 2 mps 765 mmHg 56%
    22:00 +24°C° 0 mm 2 mps 765 mmHg 59%
    23:00 +23°C° 0 mm 2 mps 765 mmHg 61%

    27 August, Tuesday

    Time Temperature Precipitation Wind Pressure Humidity
    00:00 +23°C° 0 mm 2 mps 765 mmHg 64%
    01:00 +21°C° 0 mm 2 mps 764 mmHg 64%
    02:00 +22°C° 0 mm 1 mps 764 mmHg 65%
    03:00 +22°C° 0 mm 1 mps 764 mmHg 66%
    04:00 +22°C° 0 mm 1 mps 764 mmHg 66%
    05:00 +22°C° 0 mm 1 mps 764 mmHg 67%
    06:00 +21°C° 0 mm 2 mps 764 mmHg 67%
    07:00 +24°C° 0 mm 2 mps 764 mmHg 61%
    08:00 +26°C° 0 mm 2 mps 764 mmHg 55%
    09:00 +28°C° 0 mm 2 mps 763 mmHg 49%
    10:00 +29°C° 0 mm 2 mps 763 mmHg 46%
    11:00 +30°C° 0 mm 2 mps 763 mmHg 42%
    12:00 +32°C° 0 mm 2 mps 762 mmHg 38%
    13:00 +33°C° 0 mm 3 mps 762 mmHg 38%
    14:00 +33°C° 0 mm 3 mps 761 mmHg 38%
    15:00 +33°C° 0 mm 3 mps 761 mmHg 38%
    16:00 +31°C° 0 mm 3 mps 761 mmHg 44%
    17:00 +29°C° 0 mm 3 mps 760 mmHg 49%
    18:00 +28°C° 0 mm 3 mps 760 mmHg 55%
    19:00 +27°C° 0 mm 3 mps 760 mmHg 56%
    20:00 +25°C° 0 mm 3 mps 760 mmHg 57%
    21:00 +24°C° 0 mm 3 mps 760 mmHg 59%
    22:00 +24°C° 0 mm 3 mps 760 mmHg 59%
    23:00 +22°C° 0 mm 3 mps 760 mmHg 59%
    Show more